Flag for Macedonia, Republic of Weather past 2 weeks in Skopje, Macedonia, Republic of

Now
48 °F

Scattered clouds.


Feels Like: 46 °F
Forecast: 34 / 49 °F
Wind: 6 mph from Northeast

Location: Skopje-Petrovec

Current Time: Oct 23, 2014 at 4:41:37 PM

Latest Report: Oct 23, 2014 at 4:00 PM


Visibility: N/A

Pressure: 29.65 "Hg

Humidity: 71%

Dew point: 39 °F

Location of SkopjeLocation

Historic Weather in Skopje — Graph

°F

Skopje temperature yesterday

Maximum temperature yesterday: 66 °F (at 1:00 PM)
Minimum temperature yesterday: 43 °F (at 4:30 AM)
Average temperature yesterday: 55 °F

Past Weeks' High & Low Weather Summary

 TemperatureHumidityPressure
High77 °F (Oct 11, 4:00 PM)100% (Oct 8, 11:00 PM)30.39 "Hg (Oct 8, 11:00 PM)
Low39 °F (Oct 21, 6:00 AM)35% (Oct 19, 3:30 PM)29.50 "Hg (Oct 22, 5:30 PM)
Average58 °F83%30.05 "Hg
* Reported Oct 8 3:00 PM — Oct 23 3:30 PM, Skopje, Weather by CustomWeather, © 2014

Note: Actual official high and low records may vary slightly from our data, if they occured in-between our weather recording intervals... More about our weather records

Advertising

Skopje weather history for previous 24 hours

 ConditionsComfort  
Time TempWeatherWind HumidityBarometerVisibility
3:30 PM
Oct 23
48 °FScattered clouds.8 mph76%29.65 "HgN/A
3:00 PM48 °FMore clouds than sun.9 mph76%29.65 "HgN/A
2:30 PM48 °FMore clouds than sun.6 mph76%29.68 "HgN/A
2:00 PM46 °FMore clouds than sun.3 mph76%29.68 "HgN/A
1:30 PM46 °FMore clouds than sun.3 mph76%29.68 "HgN/A
1:00 PM48 °FPartly sunny.2 mph71%29.65 "HgN/A
12:30 PM46 °FScattered clouds.8 mph82%29.68 "HgN/A
12:00 PM45 °FBroken clouds.7 mph87%29.68 "HgN/A
11:30 AM41 °FMore clouds than sun.7 mph93%29.68 "HgN/A
11:00 AM41 °FDrizzle. Mostly cloudy.2 mph93%29.68 "HgN/A
10:30 AM41 °FLight rain. Mostly cloudy.2 mph93%29.68 "HgN/A
10:00 AM41 °FLight rain. Mostly cloudy.2 mph93%29.68 "HgN/A
9:30 AM41 °FLight rain. Mostly cloudy.5 mph93%29.68 "HgN/A
9:00 AM41 °FLight rain. Mostly cloudy.5 mph93%29.68 "HgN/A
8:30 AM41 °FLight rain. Mostly cloudy.2 mph93%29.68 "HgN/A
8:00 AM41 °FLight rain. Mostly cloudy.3 mph93%29.65 "HgN/A
7:30 AM41 °FLight rain. Mostly cloudy.3 mph93%29.65 "HgN/A
7:00 AM41 °FLight rain. Mostly cloudy.3 mph87%29.65 "Hg5 mi
6:30 AM41 °FLight rain. Mostly cloudy.2 mph93%29.65 "HgN/A
6:00 AM41 °FLight rain. Mostly cloudy.3 mph93%29.65 "HgN/A
5:30 AM41 °FRain. Mostly cloudy.6 mph93%29.65 "HgN/A
5:00 AM41 °FRain. Mostly cloudy.2 mph93%29.65 "Hg3 mi
4:30 AM41 °FRain. Mostly cloudy.6 mph93%29.65 "HgN/A
4:00 AM43 °FHeavy rain. Mostly cloudy.9 mph87%29.65 "Hg3 mi
3:30 AM43 °FLight rain. Overcast.12 mph87%29.62 "HgN/A
3:00 AM43 °FRain. Mostly cloudy.3 mph87%29.62 "HgN/A
2:30 AM43 °FLight rain. Mostly cloudy.1 mph87%29.65 "HgN/A
2:00 AM43 °FHeavy rain. Mostly cloudy.No wind93%29.65 "Hg3 mi
1:30 AM45 °FRain. Mostly cloudy.9 mph93%29.62 "HgN/A
1:00 AM46 °FRain. Mostly cloudy.8 mph93%29.59 "HgN/A
12:30 AM46 °FRain. Overcast.12 mph87%29.59 "HgN/A
12:00 AM46 °FLight rain. Overcast.15 mph87%29.56 "HgN/A
11:30 PM
Oct 22
48 °FLight rain. Mostly cloudy.9 mph87%29.59 "HgN/A
10:30 PM52 °FLight rain. Mostly cloudy.16 mph88%29.59 "HgN/A
10:00 PM54 °FLight rain. Mostly cloudy.6 mph88%29.56 "HgN/A
9:30 PM61 °FLight rain. Mostly cloudy.2 mph77%29.53 "HgN/A
9:00 PM63 °FLight rain. Mostly cloudy.13 mph73%29.50 "HgN/A
8:30 PM64 °FPassing clouds.13 mph64%29.50 "HgN/A
8:00 PM64 °FPassing clouds.12 mph64%29.50 "HgN/A
7:30 PM64 °FPassing clouds.15 mph68%29.50 "HgN/A
7:00 PM64 °FPassing clouds.6 mph68%29.50 "HgN/A
6:30 PM64 °FPartly sunny.2 mph68%29.50 "HgN/A
6:00 PM64 °FPartly sunny.7 mph68%29.50 "HgN/A
5:30 PM64 °FPartly sunny.13 mph68%29.50 "HgN/A
5:00 PM66 °FPartly sunny.13 mph60%29.53 "HgN/A
4:30 PM66 °FPartly sunny.3 mph60%29.53 "HgN/A
4:00 PM66 °FPartly sunny.15 mph60%29.56 "HgN/A
Weather by CustomWeather, © 2014

See weather overviewHow to use our weather pages